This is the latest recevied weather packets stored in our database for station/object N4AN. If no packets are shown the sender has not sent any weather packets the latest 1 day(s).
| Time | Temp. | Humidity | Pressure | Rain* | Wind** | Luminosity | Snow |
|---|---|---|---|---|---|---|---|
| 1777988436 | 27.22° C | 81% | 1009.5 hPa | 0 mm | 2.68 m/s, 23° | - | - |
| 1777988136 | 27.22° C | 81% | 1009.4 hPa | 0 mm | 3.13 m/s, 56° | - | - |
| 1777987836 | 27.22° C | 81% | 1009.4 hPa | 0 mm | 3.13 m/s, 4° | - | - |
| 1777987235 | 26.67° C | 82% | 1009.4 hPa | 0 mm | 1.34 m/s, 89° | - | - |
| 1777986935 | 26.11° C | 84% | 1009.2 hPa | 0 mm | 1.34 m/s, 65° | - | - |
| 1777986836 | 26.11° C | 84% | 1009.3 hPa | 0 mm | 0.45 m/s, 1° | - | - |
| 1777986638 | 26.11° C | 84% | 1009.3 hPa | 0 mm | 0.45 m/s, 1° | - | - |
| 1777986334 | 25.56° C | 85% | 1009.3 hPa | 0 mm | 2.68 m/s, 84° | - | - |
| 1777986034 | 25.56° C | 85% | 1009.2 hPa | 0 mm | 0.89 m/s, 331° | - | - |
| 1777985734 | 25.56° C | 85% | 1009.1 hPa | 0 mm | 3.13 m/s, 20° | - | - |
| 1777985133 | 25° C | 86% | 1008.8 hPa | 0 mm | 2.24 m/s, 288° | - | - |
| 1777984833 | 25° C | 86% | 1008.8 hPa | 0 mm | 0.45 m/s, 206° | - | - |
| 1777984533 | 25° C | 87% | 1008.8 hPa | 0 mm | 1.34 m/s, 190° | - | - |
| 1777984232 | 25° C | 87% | 1008.7 hPa | 0 mm | 1.79 m/s, 228° | - | - |
| 1777983932 | 25° C | 88% | 1008.7 hPa | 0 mm | 2.24 m/s, 356° | - | - |
| 1777983632 | 25° C | 88% | 1008.7 hPa | 0 mm | 0.89 m/s, 1° | - | - |
| 1777983332 | 24.44° C | 88% | 1008.6 hPa | 0 mm | 1.34 m/s, 204° | - | - |
| 1777983031 | 24.44° C | 89% | 1008.6 hPa | 0 mm | 1.34 m/s, 293° | - | - |
| 1777982731 | 24.44° C | 89% | 1008.6 hPa | 0 mm | 0.89 m/s, 1° | - | - |
| 1777982431 | 24.44° C | 89% | 1008.5 hPa | 0 mm | 0.89 m/s, 187° | - | - |
| 1777982130 | 23.89° C | 89% | 1008.5 hPa | 0 mm | 0.89 m/s, 63° | - | - |
| 1777981830 | 23.89° C | 89% | 1008.5 hPa | 0 mm | 1.34 m/s, 98° | - | - |
| 1777981530 | 23.89° C | 90% | 1008.5 hPa | 0 mm | 1.34 m/s, 223° | - | - |
| 1777981229 | 23.89° C | 90% | 1008.3 hPa | 0 mm | 0.45 m/s, 195° | - | - |
| 1777980929 | 23.89° C | 90% | 1008.2 hPa | 0 mm | 1.79 m/s, 1° | - | - |
* Rain latest hour (hover to see other rain measurements)
** Current wind speed in m/s (hover to see current wind gust speed)